Wetterdaten: Woche 30.11.15 - 06.12.15 (KW49)
Datum Zeit Temp. A. Feuchte A. Luftdruck Regen Wind Richtung Sonnenschein ET UV Solar Taupunkt Windchill Windben Empfang
30.11.2015 00:00 8,7 C 80 % 1018,5 hPa 0,0 l/m 23,2 km/h (4 Bft) SW 0,00 h 0,000 mm 0,0 UV-I 0 W/m 5,4 C 0,6 C 40,0 km/h (6 Bft) 99,14 %
30.11.2015 01:00 9,7 C 70 % 1018,5 hPa 0,2 l/m 23,1 km/h (4 Bft) W-SW 0,00 h 0,051 mm 0,0 UV-I 0 W/m 4,6 C 2,0 C 42,0 km/h (6 Bft) 97,89 %
30.11.2015 02:00 10,4 C 66 % 1018,4 hPa 0,0 l/m 28,8 km/h (5 Bft) W-SW 0,00 h 0,076 mm 0,0 UV-I 0 W/m 4,3 C 1,5 C 50,2 km/h (7 Bft) 99,02 %
30.11.2015 03:00 10,5 C 65 % 1017,8 hPa 0,0 l/m 30,0 km/h (5 Bft) W-SW 0,00 h 0,102 mm 0,0 UV-I 0 W/m 4,1 C 1,4 C 52,2 km/h (7 Bft) 98,05 %
30.11.2015 04:00 10,8 C 63 % 1018,0 hPa 0,0 l/m 30,3 km/h (5 Bft) W 0,00 h 0,127 mm 0,0 UV-I 0 W/m 3,9 C 1,8 C 51,6 km/h (7 Bft) 99,12 %
30.11.2015 05:00 11,1 C 62 % 1018,0 hPa 0,0 l/m 33,6 km/h (5 Bft) W 0,00 h 0,127 mm 0,0 UV-I 0 W/m 4,0 C 1,5 C 57,4 km/h (7 Bft) 98,51 %
30.11.2015 06:00 10,9 C 62 % 1018,4 hPa 0,0 l/m 28,6 km/h (4 Bft) W-SW 0,00 h 0,127 mm 0,0 UV-I 0 W/m 3,9 C 2,3 C 46,8 km/h (6 Bft) 99,14 %
30.11.2015 07:00 10,6 C 66 % 1018,6 hPa 0,0 l/m 32,7 km/h (5 Bft) W-SW 0,00 h 0,127 mm 0,0 UV-I 6 W/m 4,6 C 0,9 C 58,1 km/h (7 Bft) 97,84 %
30.11.2015 08:00 9,7 C 73 % 1019,2 hPa 0,0 l/m 29,2 km/h (5 Bft) SW 0,00 h 0,127 mm 0,0 UV-I 20 W/m 5,1 C 0,4 C 50,3 km/h (7 Bft) 98,74 %
30.11.2015 09:00 9,2 C 77 % 1020,0 hPa 0,0 l/m 25,9 km/h (4 Bft) SW 0,00 h 0,076 mm 0,0 UV-I 39 W/m 5,4 C 0,5 C 44,4 km/h (6 Bft) 98,41 %
30.11.2015 10:00 9,6 C 75 % 1020,2 hPa 0,0 l/m 28,9 km/h (5 Bft) W-SW 0,00 h 0,076 mm 0,0 UV-I 62 W/m 5,4 C 0,4 C 50,3 km/h (7 Bft) 98,55 %
30.11.2015 11:00 10,2 C 73 % 1019,9 hPa 0,0 l/m 31,5 km/h (5 Bft) SW 0,00 h 0,102 mm 0,5 UV-I 125 W/m 5,6 C 0,7 C 52,3 km/h (7 Bft) 98,64 %
30.11.2015 12:00 10,2 C 74 % 1020,0 hPa 0,0 l/m 28,5 km/h (4 Bft) SW 0,00 h 0,152 mm 0,0 UV-I 54 W/m 5,7 C 1,2 C 49,1 km/h (6 Bft) 98,78 %
30.11.2015 13:00 9,9 C 75 % 1020,3 hPa 0,0 l/m 24,9 km/h (4 Bft) SW 0,00 h 0,102 mm 0,0 UV-I 30 W/m 5,7 C 1,7 C 43,2 km/h (6 Bft) 98,44 %
30.11.2015 14:00 9,2 C 81 % 1020,5 hPa 0,2 l/m 23,4 km/h (4 Bft) SW 0,00 h 0,076 mm 0,0 UV-I 18 W/m 6,0 C 1,2 C 39,5 km/h (6 Bft) 98,80 %
30.11.2015 15:00 9,3 C 79 % 1020,4 hPa 0,2 l/m 23,0 km/h (4 Bft) SW 0,00 h 0,051 mm 0,0 UV-I 9 W/m 5,8 C 1,4 C 36,6 km/h (5 Bft) 98,60 %
30.11.2015 16:00 9,3 C 78 % 1019,7 hPa 0,0 l/m 22,1 km/h (4 Bft) SW 0,00 h 0,050 mm 0,0 UV-I 0 W/m 5,6 C 1,7 C 35,8 km/h (5 Bft) 98,57 %
30.11.2015 17:00 10,2 C 69 % 1019,3 hPa 0,0 l/m 23,9 km/h (4 Bft) W-SW 0,00 h 0,051 mm 0,0 UV-I 0 W/m 4,8 C 2,4 C 40,2 km/h (6 Bft) 98,87 %
30.11.2015 18:00 10,6 C 66 % 1019,2 hPa 0,0 l/m 26,0 km/h (4 Bft) W 0,00 h 0,076 mm 0,0 UV-I 0 W/m 4,5 C 2,5 C 42,9 km/h (6 Bft) 98,01 %
30.11.2015 19:00 10,8 C 65 % 1019,4 hPa 0,0 l/m 23,7 km/h (4 Bft) SW 0,00 h 0,102 mm 0,0 UV-I 0 W/m 4,4 C 3,2 C 39,0 km/h (6 Bft) 99,22 %
30.11.2015 20:00 10,5 C 65 % 1018,9 hPa 0,0 l/m 20,5 km/h (4 Bft) W-SW 0,00 h 0,102 mm 0,0 UV-I 0 W/m 4,2 C 3,9 C 33,3 km/h (5 Bft) 98,22 %
30.11.2015 21:00 10,5 C 64 % 1018,2 hPa 0,0 l/m 21,3 km/h (4 Bft) W-SW 0,00 h 0,076 mm 0,0 UV-I 0 W/m 3,9 C 3,5 C 37,0 km/h (5 Bft) 99,16 %
30.11.2015 22:00 10,7 C 62 % 1017,5 hPa 0,0 l/m 23,7 km/h (4 Bft) W-SW 0,00 h 0,076 mm 0,0 UV-I 0 W/m 3,6 C 3,1 C 39,6 km/h (6 Bft) 97,85 %
30.11.2015 23:00 10,9 C 61 % 1017,2 hPa 0,0 l/m 26,9 km/h (4 Bft) SW 0,00 h 0,102 mm 0,0 UV-I 0 W/m 3,7 C 2,7 C 50,0 km/h (6 Bft) 99,08 %
01.12.2015 00:00 10,3 C 69 % 1017,7 hPa 0,0 l/m 29,4 km/h (5 Bft) W-SW 0,00 h 0,000 mm 0,0 UV-I 0 W/m 4,8 C 1,2 C 49,9 km/h (6 Bft) 97,77 %
01.12.2015 01:00 9,3 C 76 % 1017,8 hPa 0,8 l/m 24,5 km/h (4 Bft) W-SW 0,00 h 0,102 mm 0,0 UV-I 0 W/m 5,4 C 1,1 C 40,8 km/h (6 Bft) 99,30 %
01.12.2015 02:00 9,3 C 78 % 1018,1 hPa 0,6 l/m 23,3 km/h (4 Bft) W-SW 0,00 h 0,050 mm 0,0 UV-I 0 W/m 5,7 C 1,3 C 38,6 km/h (5 Bft) 97,29 %
01.12.2015 03:00 9,0 C 81 % 1018,3 hPa 0,8 l/m 20,1 km/h (4 Bft) W 0,00 h 0,051 mm 0,0 UV-I 0 W/m 5,9 C 2,0 C 33,0 km/h (5 Bft) 99,30 %
01.12.2015 04:00 9,0 C 83 % 1018,8 hPa 0,6 l/m 21,0 km/h (4 Bft) W 0,00 h 0,051 mm 0,0 UV-I 0 W/m 6,2 C 1,7 C 36,9 km/h (5 Bft) 97,35 %
01.12.2015 05:00 8,5 C 85 % 1019,3 hPa 0,0 l/m 17,7 km/h (3 Bft) W-SW 0,00 h 0,025 mm 0,0 UV-I 0 W/m 6,2 C 2,3 C 28,4 km/h (4 Bft) 98,65 %
01.12.2015 06:00 8,5 C 86 % 1019,9 hPa 0,6 l/m 22,0 km/h (4 Bft) SW 0,00 h 0,026 mm 0,0 UV-I 0 W/m 6,3 C 0,7 C 36,5 km/h (5 Bft) 97,58 %
01.12.2015 07:00 8,2 C 88 % 1020,9 hPa 0,2 l/m 20,0 km/h (4 Bft) SW 0,00 h 0,025 mm 0,0 UV-I 0 W/m 6,4 C 1,0 C 34,6 km/h (5 Bft) 98,32 %
01.12.2015 08:00 8,2 C 88 % 1021,7 hPa 0,4 l/m 21,9 km/h (4 Bft) SW 0,00 h 0,026 mm 0,0 UV-I 7 W/m 6,4 C 0,4 C 34,7 km/h (5 Bft) 97,68 %
01.12.2015 09:00 8,6 C 86 % 1022,3 hPa 0,0 l/m 23,1 km/h (4 Bft) SW 0,00 h 0,025 mm 0,0 UV-I 14 W/m 6,4 C 0,5 C 38,1 km/h (5 Bft) 97,53 %
01.12.2015 10:00 9,0 C 83 % 1022,8 hPa 0,2 l/m 23,3 km/h (4 Bft) SW 0,00 h 0,025 mm 0,0 UV-I 23 W/m 6,4 C 1,0 C 38,1 km/h (5 Bft) 98,48 %
01.12.2015 11:00 8,8 C 86 % 1022,7 hPa 0,6 l/m 25,2 km/h (4 Bft) W-SW 0,00 h 0,051 mm 0,0 UV-I 32 W/m 6,6 C 0,2 C 40,2 km/h (6 Bft) 97,67 %
01.12.2015 12:00 8,7 C 88 % 1022,9 hPa 0,2 l/m 24,1 km/h (4 Bft) W-SW 0,00 h 0,051 mm 0,0 UV-I 54 W/m 6,9 C 0,4 C 40,1 km/h (6 Bft) 98,84 %
01.12.2015 13:00 9,1 C 87 % 1023,1 hPa 0,0 l/m 25,3 km/h (4 Bft) W-SW 0,00 h 0,051 mm 0,0 UV-I 45 W/m 6,9 C 0,5 C 41,2 km/h (6 Bft) 98,01 %
01.12.2015 14:00 9,3 C 85 % 1023,4 hPa 0,0 l/m 23,6 km/h (4 Bft) W-SW 0,00 h 0,051 mm 0,0 UV-I 22 W/m 6,9 C 1,3 C 38,1 km/h (5 Bft) 98,94 %
01.12.2015 15:00 9,3 C 86 % 1023,8 hPa 0,0 l/m 21,9 km/h (4 Bft) SW 0,00 h 0,050 mm 0,0 UV-I 9 W/m 7,0 C 1,7 C 36,6 km/h (5 Bft) 97,81 %
01.12.2015 16:00 9,1 C 88 % 1024,2 hPa 0,0 l/m 19,0 km/h (3 Bft) SW 0,00 h 0,026 mm 0,0 UV-I 0 W/m 7,2 C 2,5 C 30,2 km/h (5 Bft) 99,14 %
01.12.2015 17:00 8,6 C 93 % 1024,7 hPa 0,0 l/m 17,3 km/h (3 Bft) SW 0,00 h 0,025 mm 0,0 UV-I 0 W/m 7,5 C 2,5 C 29,2 km/h (5 Bft) 97,18 %
01.12.2015 18:00 8,6 C 93 % 1025,2 hPa 0,2 l/m 16,7 km/h (3 Bft) W-SW 0,00 h 0,026 mm 0,0 UV-I 0 W/m 7,6 C 2,8 C 26,8 km/h (4 Bft) 98,71 %
01.12.2015 19:00 8,7 C 93 % 1025,6 hPa 0,4 l/m 14,6 km/h (3 Bft) SW 0,00 h 0,000 mm 0,0 UV-I 0 W/m 7,7 C 3,7 C 22,5 km/h (4 Bft) 97,67 %
01.12.2015 20:00 8,7 C 93 % 1025,8 hPa 0,4 l/m 15,0 km/h (3 Bft) W-SW 0,00 h 0,000 mm 0,0 UV-I 0 W/m 7,6 C 3,6 C 23,7 km/h (4 Bft) 99,02 %
01.12.2015 21:00 8,8 C 93 % 1026,3 hPa 0,4 l/m 12,8 km/h (3 Bft) W-SW 0,00 h 0,000 mm 0,0 UV-I 0 W/m 7,7 C 4,7 C 21,6 km/h (4 Bft) 97,70 %
01.12.2015 22:00 8,7 C 93 % 1026,8 hPa 0,0 l/m 13,7 km/h (3 Bft) SW 0,00 h 0,000 mm 0,0 UV-I 0 W/m 7,7 C 4,3 C 22,9 km/h (4 Bft) 99,30 %
01.12.2015 23:00 8,9 C 92 % 1027,0 hPa 0,0 l/m 17,9 km/h (3 Bft) W-SW 0,00 h 0,000 mm 0,0 UV-I 0 W/m 7,7 C 2,6 C 28,3 km/h (4 Bft) 98,02 %
02.12.2015 00:00 9,2 C 90 % 1027,4 hPa 0,0 l/m 14,5 km/h (3 Bft) SW 0,00 h 0,000 mm 0,0 UV-I 0 W/m 7,6 C 4,5 C 24,5 km/h (4 Bft) 98,49 %
02.12.2015 01:00 9,4 C 87 % 1027,3 hPa 0,0 l/m 17,1 km/h (3 Bft) W-SW 0,00 h 0,025 mm 0,0 UV-I 0 W/m 7,4 C 3,6 C 27,6 km/h (4 Bft) 97,67 %
02.12.2015 02:00 9,7 C 85 % 1027,2 hPa 0,0 l/m 18,8 km/h (3 Bft) W-SW 0,00 h 0,026 mm 0,0 UV-I 0 W/m 7,3 C 3,3 C 31,3 km/h (5 Bft) 98,63 %
02.12.2015 03:00 9,5 C 86 % 1027,3 hPa 0,0 l/m 14,5 km/h (3 Bft) W-SW 0,00 h 0,025 mm 0,0 UV-I 0 W/m 7,2 C 4,8 C 22,5 km/h (4 Bft) 97,97 %
02.12.2015 04:00 9,5 C 86 % 1027,3 hPa 0,0 l/m 14,4 km/h (3 Bft) W-SW 0,00 h 0,026 mm 0,0 UV-I 0 W/m 7,3 C 4,8 C 24,4 km/h (4 Bft) 98,37 %
02.12.2015 05:00 9,3 C 88 % 1027,4 hPa 0,0 l/m 13,9 km/h (3 Bft) W-SW 0,00 h 0,025 mm 0,0 UV-I 0 W/m 7,3 C 4,8 C 22,8 km/h (4 Bft) 98,16 %
02.12.2015 06:00 8,9 C 90 % 1027,7 hPa 0,0 l/m 16,2 km/h (3 Bft) W-SW 0,00 h 0,025 mm 0,0 UV-I 0 W/m 7,3 C 3,3 C 25,1 km/h (4 Bft) 98,93 %
02.12.2015 07:00 9,0 C 87 % 1028,1 hPa 0,0 l/m 15,8 km/h (3 Bft) W-SW 0,00 h 0,026 mm 0,0 UV-I 3 W/m 6,9 C 3,6 C 24,7 km/h (4 Bft) 98,16 %
02.12.2015 08:00 8,9 C 87 % 1028,4 hPa 0,0 l/m 17,1 km/h (3 Bft) W-SW 0,00 h 0,025 mm 0,0 UV-I 25 W/m 6,8 C 3,0 C 27,1 km/h (4 Bft) 98,24 %
02.12.2015 09:00 9,2 C 85 % 1028,7 hPa 0,0 l/m 14,6 km/h (3 Bft) SW 0,00 h 0,026 mm 0,0 UV-I 74 W/m 6,8 C 4,5 C 24,3 km/h (4 Bft) 99,66 %
02.12.2015 10:00 9,7 C 83 % 1029,4 hPa 0,0 l/m 12,0 km/h (2 Bft) S-SW 0,00 h 0,051 mm 0,0 UV-I 76 W/m 6,9 C 6,1 C 22,1 km/h (4 Bft) 99,33 %
02.12.2015 11:00 10,0 C 82 % 1029,6 hPa 0,0 l/m 13,0 km/h (3 Bft) W-SW 0,00 h 0,050 mm 0,0 UV-I 87 W/m 7,0 C 6,0 C 21,6 km/h (4 Bft) 98,43 %
02.12.2015 12:00 10,2 C 80 % 1029,6 hPa 0,0 l/m 11,8 km/h (2 Bft) SW 0,00 h 0,076 mm 0,0 UV-I 83 W/m 7,0 C 6,8 C 21,0 km/h (4 Bft) 98,18 %
02.12.2015 13:00 10,3 C 80 % 1029,4 hPa 0,0 l/m 11,1 km/h (2 Bft) SW 0,00 h 0,077 mm 0,4 UV-I 120 W/m 7,1 C 7,4 C 19,3 km/h (3 Bft) 97,86 %
02.12.2015 14:00 10,3 C 80 % 1029,4 hPa 0,0 l/m 8,6 km/h (2 Bft) SW 0,00 h 0,076 mm 0,0 UV-I 93 W/m 7,1 C 8,9 C 15,3 km/h (3 Bft) 98,38 %
02.12.2015 15:00 10,0 C 82 % 1029,4 hPa 0,0 l/m 5,5 km/h (1 Bft) S-SW 0,00 h 0,051 mm 0,0 UV-I 26 W/m 7,0 C 9,9 C 9,5 km/h (2 Bft) 98,14 %
02.12.2015 16:00 9,5 C 82 % 1029,2 hPa 0,0 l/m 3,5 km/h (1 Bft) S-SW 0,00 h 0,025 mm 0,0 UV-I 5 W/m 6,7 C 9,5 C 6,7 km/h (2 Bft) 97,63 %
02.12.2015 17:00 9,1 C 84 % 1029,3 hPa 0,0 l/m 2,1 km/h (1 Bft) S-SW 0,00 h 0,000 mm 0,0 UV-I 0 W/m 6,4 C 9,1 C 4,1 km/h (1 Bft) 98,62 %
02.12.2015 18:00 8,5 C 84 % 1029,4 hPa 0,0 l/m 3,3 km/h (1 Bft) S 0,00 h 0,000 mm 0,0 UV-I 0 W/m 6,0 C 8,5 C 6,0 km/h (2 Bft) 98,08 %
02.12.2015 19:00 7,5 C 86 % 1029,3 hPa 0,0 l/m 3,4 km/h (1 Bft) S-SO 0,00 h 0,000 mm 0,0 UV-I 0 W/m 5,3 C 7,5 C 6,7 km/h (2 Bft) 98,71 %
02.12.2015 20:00 5,9 C 90 % 1029,1 hPa 0,0 l/m 3,3 km/h (1 Bft) S 0,00 h 0,000 mm 0,0 UV-I 0 W/m 4,4 C 5,9 C 4,9 km/h (1 Bft) 97,74 %
02.12.2015 21:00 5,0 C 93 % 1029,4 hPa 0,0 l/m 2,9 km/h (1 Bft) S 0,00 h 0,000 mm 0,0 UV-I 0 W/m 3,9 C 5,0 C 4,7 km/h (1 Bft) 98,18 %
02.12.2015 22:00 4,6 C 93 % 1029,4 hPa 0,0 l/m 2,9 km/h (1 Bft) S 0,00 h 0,000 mm 0,0 UV-I 0 W/m 3,6 C 4,6 C 5,3 km/h (1 Bft) 98,68 %
02.12.2015 23:00 4,6 C 94 % 1029,5 hPa 0,0 l/m 2,9 km/h (1 Bft) S 0,00 h 0,000 mm 0,0 UV-I 0 W/m 3,8 C 4,6 C 5,7 km/h (1 Bft) 98,79 %
03.12.2015 00:00 4,4 C 95 % 1029,7 hPa 0,0 l/m 3,8 km/h (1 Bft) S 0,00 h 0,000 mm 0,0 UV-I 0 W/m 3,7 C 4,4 C 6,1 km/h (2 Bft) 97,22 %
03.12.2015 01:00 4,0 C 95 % 1029,9 hPa 0,0 l/m 2,5 km/h (1 Bft) S-SW 0,00 h 0,000 mm 0,0 UV-I 0 W/m 3,2 C 4,0 C 4,0 km/h (1 Bft) 99,09 %
03.12.2015 02:00 5,1 C 94 % 1030,0 hPa 0,0 l/m 2,1 km/h (1 Bft) S 0,00 h 0,000 mm 0,0 UV-I 0 W/m 4,2 C 5,1 C 3,9 km/h (1 Bft) 97,27 %
03.12.2015 03:00 5,4 C 94 % 1030,0 hPa 0,0 l/m 2,1 km/h (1 Bft) S 0,00 h 0,000 mm 0,0 UV-I 0 W/m 4,5 C 5,4 C 4,0 km/h (1 Bft) 98,96 %
03.12.2015 04:00 5,9 C 93 % 1029,9 hPa 0,0 l/m 3,7 km/h (1 Bft) S 0,00 h 0,000 mm 0,0 UV-I 0 W/m 4,9 C 5,9 C 6,4 km/h (2 Bft) 98,07 %
03.12.2015 05:00 6,0 C 92 % 1029,8 hPa 0,0 l/m 4,0 km/h (1 Bft) S 0,00 h 0,000 mm 0,0 UV-I 0 W/m 4,8 C 6,0 C 6,6 km/h (2 Bft) 98,88 %
03.12.2015 06:00 5,8 C 92 % 1030,3 hPa 0,0 l/m 4,0 km/h (1 Bft) S 0,00 h 0,000 mm 0,0 UV-I 0 W/m 4,7 C 5,8 C 7,2 km/h (2 Bft) 97,84 %
03.12.2015 07:00 5,2 C 93 % 1030,9 hPa 0,0 l/m 1,7 km/h (1 Bft) W-SW 0,00 h 0,000 mm 0,0 UV-I 8 W/m 4,2 C 5,2 C 3,6 km/h (1 Bft) 99,22 %
03.12.2015 08:00 5,1 C 94 % 1031,5 hPa 0,0 l/m 1,6 km/h (1 Bft) S-SW 0,00 h 0,000 mm 0,0 UV-I 39 W/m 4,2 C 5,1 C 4,3 km/h (1 Bft) 97,21 %
03.12.2015 09:00 6,2 C 91 % 1031,6 hPa 0,0 l/m 2,6 km/h (1 Bft) O-NO 0,00 h 0,025 mm 0,0 UV-I 90 W/m 4,9 C 6,2 C 5,3 km/h (1 Bft) 98,85 %
03.12.2015 10:00 7,3 C 89 % 1031,6 hPa 0,0 l/m 1,1 km/h (1 Bft) NO 0,67 h 0,051 mm 0,6 UV-I 223 W/m 5,6 C 7,3 C 2,9 km/h (1 Bft) 98,13 %
03.12.2015 11:00 8,5 C 84 % 1031,3 hPa 0,0 l/m 1,9 km/h (1 Bft) N-NO 0,50 h 0,102 mm 0,6 UV-I 224 W/m 6,0 C 8,5 C 4,7 km/h (1 Bft) 99,01 %
03.12.2015 12:00 9,4 C 80 % 1031,1 hPa 0,0 l/m 4,1 km/h (1 Bft) O 0,92 h 0,101 mm 0,7 UV-I 345 W/m 6,1 C 9,3 C 9,9 km/h (2 Bft) 98,41 %
03.12.2015 13:00 9,4 C 75 % 1030,8 hPa 0,0 l/m 7,4 km/h (2 Bft) O-SO 1,00 h 0,153 mm 0,5 UV-I 294 W/m 5,1 C 8,6 C 13,6 km/h (3 Bft) 98,09 %
03.12.2015 14:00 9,2 C 76 % 1030,2 hPa 0,0 l/m 7,5 km/h (2 Bft) O-NO 1,00 h 0,152 mm 0,0 UV-I 153 W/m 5,2 C 8,4 C 12,2 km/h (2 Bft) 98,50 %
03.12.2015 15:00 8,5 C 79 % 1030,1 hPa 0,0 l/m 5,8 km/h (1 Bft) NO 0,42 h 0,076 mm 0,0 UV-I 43 W/m 5,0 C 8,4 C 9,1 km/h (2 Bft) 97,71 %
03.12.2015 16:00 6,6 C 85 % 1029,9 hPa 0,0 l/m 3,5 km/h (1 Bft) O-NO 0,00 h 0,026 mm 0,0 UV-I 7 W/m 4,3 C 6,6 C 5,9 km/h (2 Bft) 98,72 %
03.12.2015 17:00 5,4 C 89 % 1029,7 hPa 0,0 l/m 1,6 km/h (1 Bft) O 0,00 h 0,000 mm 0,0 UV-I 0 W/m 3,7 C 5,4 C 2,8 km/h (1 Bft) 96,85 %
03.12.2015 18:00 4,4 C 91 % 1029,9 hPa 0,0 l/m 0,4 km/h (0 Bft) O 0,00 h 0,000 mm 0,0 UV-I 0 W/m 3,1 C 4,4 C 1,5 km/h (1 Bft) 99,14 %
03.12.2015 19:00 2,8 C 94 % 1030,0 hPa 0,0 l/m 1,2 km/h (1 Bft) O-SO 0,00 h 0,000 mm 0,0 UV-I 0 W/m 2,0 C 2,8 C 2,7 km/h (1 Bft) 97,71 %
03.12.2015 20:00 2,0 C 96 % 1030,0 hPa 0,0 l/m 2,0 km/h (1 Bft) S 0,00 h 0,000 mm 0,0 UV-I 0 W/m 1,4 C 2,0 C 3,3 km/h (1 Bft) 99,23 %
03.12.2015 21:00 1,4 C 96 % 1029,8 hPa 0,0 l/m 1,1 km/h (1 Bft) S 0,00 h 0,000 mm 0,0 UV-I 0 W/m 0,9 C 1,4 C 2,8 km/h (1 Bft) 98,08 %
03.12.2015 22:00 0,8 C 96 % 1029,6 hPa 0,0 l/m 0,9 km/h (0 Bft) NW 0,00 h 0,000 mm 0,0 UV-I 0 W/m 0,3 C 0,8 C 2,5 km/h (1 Bft) 98,36 %
03.12.2015 23:00 0,2 C 97 % 1029,1 hPa 0,0 l/m 1,2 km/h (1 Bft) O-SO 0,00 h 0,000 mm 0,0 UV-I 0 W/m -0,3 C 0,2 C 3,1 km/h (1 Bft) 98,79 %
04.12.2015 00:00 -0,4 C 97 % 1028,5 hPa 0,0 l/m 1,4 km/h (1 Bft) O-NO 0,00 h 0,000 mm 0,0 UV-I 0 W/m -0,8 C -0,4 C 2,9 km/h (1 Bft) 97,92 %
04.12.2015 01:00 -0,5 C 97 % 1028,4 hPa 0,0 l/m 0,4 km/h (0 Bft) W 0,00 h 0,000 mm 0,0 UV-I 0 W/m -0,9 C -0,5 C 1,7 km/h (1 Bft) 99,13 %
04.12.2015 02:00 -0,7 C 97 % 1028,3 hPa 0,0 l/m 2,3 km/h (1 Bft) S 0,00 h 0,000 mm 0,0 UV-I 0 W/m -1,1 C -0,7 C 4,3 km/h (1 Bft) 97,38 %
04.12.2015 03:00 -0,2 C 98 % 1028,3 hPa 0,0 l/m 1,5 km/h (1 Bft) S 0,00 h 0,000 mm 0,0 UV-I 0 W/m -0,5 C -0,2 C 4,0 km/h (1 Bft) 98,71 %
04.12.2015 04:00 -0,3 C 98 % 1028,2 hPa 0,0 l/m 3,2 km/h (1 Bft) S 0,00 h 0,000 mm 0,0 UV-I 0 W/m -0,6 C -0,3 C 5,7 km/h (1 Bft) 97,55 %
04.12.2015 05:00 -0,4 C 98 % 1029,0 hPa 0,0 l/m 4,7 km/h (1 Bft) SW 0,00 h 0,000 mm 0,0 UV-I 0 W/m -0,6 C -0,5 C 8,3 km/h (2 Bft) 98,94 %
04.12.2015 06:00 -0,7 C 98 % 1029,5 hPa 0,0 l/m 6,8 km/h (2 Bft) S 0,00 h 0,000 mm 0,0 UV-I 0 W/m -1,0 C -1,8 C 11,1 km/h (2 Bft) 96,93 %
04.12.2015 07:00 -0,9 C 98 % 1030,2 hPa 0,0 l/m 2,6 km/h (1 Bft) S-SW 0,00 h 0,000 mm 0,0 UV-I 7 W/m -1,2 C -0,9 C 5,7 km/h (1 Bft) 98,55 %
04.12.2015 08:00 -1,0 C 98 % 1030,9 hPa 0,0 l/m 1,8 km/h (1 Bft) SO 0,00 h 0,000 mm 0,0 UV-I 33 W/m -1,3 C -1,0 C 4,7 km/h (1 Bft) 97,51 %
04.12.2015 09:00 -0,7 C 98 % 1031,8 hPa 0,2 l/m 2,2 km/h (1 Bft) W-NW 0,00 h 0,000 mm 0,0 UV-I 66 W/m -1,0 C -0,7 C 5,3 km/h (1 Bft) 98,81 %
04.12.2015 10:00 -0,3 C 98 % 1032,2 hPa 0,0 l/m 2,9 km/h (1 Bft) W-SW 0,00 h 0,025 mm 0,0 UV-I 105 W/m -0,6 C -0,3 C 5,7 km/h (1 Bft) 97,15 %
04.12.2015 11:00 0,4 C 98 % 1032,1 hPa 0,0 l/m 2,4 km/h (1 Bft) W 0,00 h 0,026 mm 0,2 UV-I 134 W/m 0,1 C 0,4 C 5,7 km/h (1 Bft) 98,11 %
04.12.2015 12:00 1,0 C 98 % 1032,3 hPa 0,0 l/m 0,6 km/h (0 Bft) N-NW 0,00 h 0,051 mm 0,3 UV-I 137 W/m 0,7 C 1,0 C 2,9 km/h (1 Bft) 97,29 %
04.12.2015 13:00 1,5 C 98 % 1032,5 hPa 0,0 l/m 0,6 km/h (0 Bft) NW 0,17 h 0,050 mm 0,0 UV-I 134 W/m 1,2 C 1,5 C 3,1 km/h (1 Bft) 96,52 %
04.12.2015 14:00 2,2 C 98 % 1032,8 hPa 0,0 l/m 1,1 km/h (1 Bft) W-SW 0,58 h 0,051 mm 0,0 UV-I 128 W/m 1,9 C 2,2 C 3,6 km/h (1 Bft) 95,73 %
04.12.2015 15:00 2,4 C 98 % 1033,3 hPa 0,0 l/m 1,5 km/h (1 Bft) O-SO 0,08 h 0,051 mm 0,0 UV-I 24 W/m 2,1 C 2,4 C 3,7 km/h (1 Bft) 88,05 %
04.12.2015 16:00 2,8 C 98 % 1033,8 hPa 0,0 l/m 0,5 km/h (0 Bft) O-SO 0,00 h 0,000 mm 0,0 UV-I 3 W/m 2,5 C 2,8 C 1,9 km/h (1 Bft) 96,79 %
04.12.2015 17:00 3,2 C 98 % 1034,4 hPa 0,0 l/m 2,0 km/h (1 Bft) S 0,00 h 0,000 mm 0,0 UV-I 0 W/m 2,9 C 3,2 C 4,7 km/h (1 Bft) 98,64 %
04.12.2015 18:00 3,4 C 98 % 1035,1 hPa 0,0 l/m 1,3 km/h (1 Bft) NO 0,00 h 0,000 mm 0,0 UV-I 0 W/m 3,1 C 3,4 C 3,2 km/h (1 Bft) 97,36 %
04.12.2015 19:00 3,5 C 97 % 1035,7 hPa 0,0 l/m 2,5 km/h (1 Bft) S 0,00 h 0,000 mm 0,0 UV-I 0 W/m 3,1 C 3,5 C 5,5 km/h (1 Bft) 98,45 %
04.12.2015 20:00 4,3 C 96 % 1036,0 hPa 0,0 l/m 2,4 km/h (1 Bft) S 0,00 h 0,000 mm 0,0 UV-I 0 W/m 3,6 C 4,3 C 4,4 km/h (1 Bft) 97,52 %
04.12.2015 21:00 4,1 C 96 % 1036,3 hPa 0,0 l/m 1,9 km/h (1 Bft) NO 0,00 h 0,000 mm 0,0 UV-I 0 W/m 3,6 C 4,1 C 3,6 km/h (1 Bft) 98,44 %
04.12.2015 22:00 4,1 C 97 % 1036,1 hPa 0,0 l/m 1,0 km/h (0 Bft) SO 0,00 h 0,000 mm 0,0 UV-I 0 W/m 3,6 C 4,1 C 3,1 km/h (1 Bft) 97,71 %
04.12.2015 23:00 4,3 C 97 % 1036,0 hPa 0,0 l/m 1,4 km/h (1 Bft) W-SW 0,00 h 0,000 mm 0,0 UV-I 0 W/m 3,9 C 4,3 C 3,7 km/h (1 Bft) 99,01 %
05.12.2015 00:00 3,8 C 96 % 1035,8 hPa 0,0 l/m 2,3 km/h (1 Bft) O 0,00 h 0,000 mm 0,0 UV-I 0 W/m 3,3 C 3,8 C 4,5 km/h (1 Bft) 96,77 %
05.12.2015 01:00 4,0 C 96 % 1035,5 hPa 0,0 l/m 2,4 km/h (1 Bft) O-NO 0,00 h 0,000 mm 0,0 UV-I 0 W/m 3,5 C 4,0 C 4,8 km/h (1 Bft) 98,51 %
05.12.2015 02:00 4,2 C 96 % 1035,5 hPa 0,0 l/m 0,9 km/h (0 Bft) S 0,00 h 0,000 mm 0,0 UV-I 0 W/m 3,6 C 4,2 C 2,9 km/h (1 Bft) 97,58 %
05.12.2015 03:00 4,4 C 96 % 1035,1 hPa 0,0 l/m 1,9 km/h (1 Bft) S 0,00 h 0,000 mm 0,0 UV-I 0 W/m 3,7 C 4,4 C 4,1 km/h (1 Bft) 98,71 %
05.12.2015 04:00 4,0 C 96 % 1034,8 hPa 0,0 l/m 0,9 km/h (0 Bft) NO 0,00 h 0,000 mm 0,0 UV-I 0 W/m 3,4 C 4,0 C 2,4 km/h (1 Bft) 97,61 %
05.12.2015 05:00 3,2 C 97 % 1034,6 hPa 0,0 l/m 1,8 km/h (1 Bft) O 0,00 h 0,000 mm 0,0 UV-I 0 W/m 2,8 C 3,2 C 3,7 km/h (1 Bft) 98,37 %
05.12.2015 06:00 2,4 C 98 % 1034,5 hPa 0,0 l/m 3,3 km/h (1 Bft) N-NO 0,00 h 0,000 mm 0,0 UV-I 0 W/m 2,1 C 2,4 C 5,6 km/h (1 Bft) 98,65 %
05.12.2015 07:00 1,9 C 98 % 1034,8 hPa 0,0 l/m 1,3 km/h (1 Bft) SO 0,00 h 0,000 mm 0,0 UV-I 3 W/m 1,7 C 1,9 C 3,7 km/h (1 Bft) 97,79 %
05.12.2015 08:00 2,8 C 98 % 1034,9 hPa 0,0 l/m 2,0 km/h (1 Bft) S-SW 0,08 h 0,000 mm 0,0 UV-I 33 W/m 2,5 C 2,8 C 5,3 km/h (1 Bft) 98,29 %
05.12.2015 09:00 4,3 C 96 % 1035,0 hPa 0,0 l/m 1,2 km/h (1 Bft) SW 1,00 h 0,025 mm 0,0 UV-I 155 W/m 3,6 C 4,3 C 3,3 km/h (1 Bft) 97,06 %
05.12.2015 10:00 5,8 C 93 % 1034,7 hPa 0,0 l/m 1,5 km/h (1 Bft) NO 1,00 h 0,051 mm 0,6 UV-I 239 W/m 4,7 C 5,8 C 3,9 km/h (1 Bft) 96,71 %
05.12.2015 11:00 7,1 C 91 % 1034,0 hPa 0,0 l/m 3,4 km/h (1 Bft) N-NO 1,00 h 0,102 mm 0,7 UV-I 286 W/m 5,7 C 7,1 C 7,0 km/h (2 Bft) 96,77 %
05.12.2015 12:00 8,2 C 90 % 1033,1 hPa 0,0 l/m 3,1 km/h (1 Bft) N-NO 1,00 h 0,127 mm 0,7 UV-I 287 W/m 6,6 C 8,2 C 7,1 km/h (2 Bft) 98,09 %
05.12.2015 13:00 8,5 C 88 % 1032,1 hPa 0,0 l/m 4,4 km/h (1 Bft) N-NO 1,00 h 0,127 mm 0,5 UV-I 239 W/m 6,6 C 8,5 C 10,1 km/h (2 Bft) 98,07 %
05.12.2015 14:00 8,8 C 86 % 1031,5 hPa 0,0 l/m 4,2 km/h (1 Bft) N-NO 1,00 h 0,101 mm 0,0 UV-I 142 W/m 6,6 C 8,8 C 8,2 km/h (2 Bft) 98,72 %
05.12.2015 15:00 8,5 C 86 % 1031,2 hPa 0,0 l/m 2,8 km/h (1 Bft) O-NO 0,42 h 0,077 mm 0,0 UV-I 42 W/m 6,3 C 8,5 C 4,8 km/h (1 Bft) 97,58 %
05.12.2015 16:00 6,7 C 91 % 1031,2 hPa 0,0 l/m 2,8 km/h (1 Bft) O-NO 0,00 h 0,025 mm 0,0 UV-I 6 W/m 5,4 C 6,7 C 4,8 km/h (1 Bft) 98,08 %
05.12.2015 17:00 5,1 C 96 % 1031,1 hPa 0,0 l/m 0,7 km/h (0 Bft) O-NO 0,00 h 0,000 mm 0,0 UV-I 0 W/m 4,4 C 5,1 C 2,0 km/h (1 Bft) 98,32 %
05.12.2015 18:00 4,4 C 97 % 1031,6 hPa 0,0 l/m 0,6 km/h (0 Bft) O-NO 0,00 h 0,000 mm 0,0 UV-I 0 W/m 4,0 C 4,4 C 2,1 km/h (1 Bft) 98,73 %
05.12.2015 19:00 4,4 C 98 % 1031,9 hPa 0,0 l/m 2,5 km/h (1 Bft) S-SO 0,00 h 0,000 mm 0,0 UV-I 0 W/m 4,1 C 4,4 C 5,3 km/h (1 Bft) 97,35 %
05.12.2015 20:00 3,6 C 97 % 1031,8 hPa 0,0 l/m 3,0 km/h (1 Bft) S 0,00 h 0,000 mm 0,0 UV-I 0 W/m 3,2 C 3,6 C 5,1 km/h (1 Bft) 99,00 %
05.12.2015 21:00 3,1 C 98 % 1031,4 hPa 0,0 l/m 2,9 km/h (1 Bft) S 0,00 h 0,000 mm 0,0 UV-I 0 W/m 2,7 C 3,1 C 4,4 km/h (1 Bft) 96,43 %
05.12.2015 22:00 2,2 C 98 % 1030,8 hPa 0,0 l/m 1,3 km/h (1 Bft) S 0,00 h 0,000 mm 0,0 UV-I 0 W/m 1,9 C 2,2 C 2,8 km/h (1 Bft) 98,94 %
05.12.2015 23:00 0,7 C 98 % 1030,3 hPa 0,0 l/m 1,1 km/h (1 Bft) O 0,00 h 0,000 mm 0,0 UV-I 0 W/m 0,4 C 0,7 C 2,0 km/h (1 Bft) 97,50 %
06.12.2015 00:00 1,1 C 98 % 1030,4 hPa 0,0 l/m 1,2 km/h (1 Bft) O 0,00 h 0,000 mm 0,0 UV-I 0 W/m 0,8 C 1,1 C 2,5 km/h (1 Bft) 98,86 %
06.12.2015 01:00 1,7 C 98 % 1030,7 hPa 0,0 l/m 1,5 km/h (1 Bft) S-SO 0,00 h 0,000 mm 0,0 UV-I 0 W/m 1,4 C 1,7 C 3,5 km/h (1 Bft) 97,78 %
06.12.2015 02:00 2,1 C 98 % 1031,0 hPa 0,0 l/m 3,2 km/h (1 Bft) S 0,00 h 0,000 mm 0,0 UV-I 0 W/m 1,8 C 2,1 C 5,5 km/h (1 Bft) 98,79 %
06.12.2015 03:00 1,9 C 98 % 1031,0 hPa 0,0 l/m 2,4 km/h (1 Bft) S 0,00 h 0,000 mm 0,0 UV-I 0 W/m 1,7 C 1,9 C 5,1 km/h (1 Bft) 97,84 %
06.12.2015 04:00 0,7 C 98 % 1030,7 hPa 0,0 l/m 0,8 km/h (0 Bft) S 0,00 h 0,000 mm 0,0 UV-I 0 W/m 0,4 C 0,7 C 2,9 km/h (1 Bft) 98,20 %
06.12.2015 05:00 -0,1 C 98 % 1030,6 hPa 0,0 l/m 0,8 km/h (0 Bft) S-SO 0,00 h 0,000 mm 0,0 UV-I 0 W/m -0,4 C -0,1 C 2,5 km/h (1 Bft) 97,94 %
06.12.2015 06:00 0,1 C 98 % 1030,7 hPa 0,0 l/m 0,8 km/h (0 Bft) S-SO 0,00 h 0,000 mm 0,0 UV-I 0 W/m -0,2 C 0,1 C 2,4 km/h (1 Bft) 98,28 %
06.12.2015 07:00 0,8 C 99 % 1031,0 hPa 0,0 l/m 1,7 km/h (1 Bft) O-NO 0,00 h 0,000 mm 0,0 UV-I 4 W/m 0,6 C 0,8 C 4,1 km/h (1 Bft) 98,01 %
06.12.2015 08:00 1,1 C 99 % 1031,6 hPa 0,0 l/m 2,4 km/h (1 Bft) O-NO 0,00 h 0,000 mm 0,0 UV-I 24 W/m 1,0 C 1,1 C 5,5 km/h (1 Bft) 94,91 %
06.12.2015 09:00 0,8 C 98 % 1032,2 hPa 0,0 l/m 1,8 km/h (1 Bft) SO 0,00 h 0,000 mm 0,0 UV-I 67 W/m 0,5 C 0,8 C 4,3 km/h (1 Bft) 76,21 %
06.12.2015 10:00 1,1 C 99 % 1032,5 hPa 0,0 l/m 1,6 km/h (1 Bft) SO 0,00 h 0,025 mm 0,0 UV-I 108 W/m 0,9 C 1,1 C 4,0 km/h (1 Bft) 97,47 %
06.12.2015 11:00 1,7 C 99 % 1032,1 hPa 0,0 l/m 2,6 km/h (1 Bft) NO 0,00 h 0,026 mm 0,4 UV-I 138 W/m 1,5 C 1,7 C 5,9 km/h (2 Bft) 89,04 %
06.12.2015 12:00 2,5 C 99 % 1031,8 hPa 0,0 l/m 2,0 km/h (1 Bft) N 0,00 h 0,051 mm 0,3 UV-I 118 W/m 2,3 C 2,5 C 5,5 km/h (1 Bft) 87,27 %
06.12.2015 13:00 2,5 C 99 % 1031,6 hPa 0,0 l/m 1,4 km/h (1 Bft) N-NO 0,00 h 0,050 mm 0,0 UV-I 92 W/m 2,4 C 2,5 C 3,6 km/h (1 Bft) 96,71 %
06.12.2015 14:00 2,8 C 99 % 1031,2 hPa 0,0 l/m 3,1 km/h (1 Bft) O-SO 0,00 h 0,026 mm 0,0 UV-I 59 W/m 2,7 C 2,8 C 6,2 km/h (2 Bft) 94,51 %
06.12.2015 15:00 2,7 C 99 % 1031,1 hPa 0,0 l/m 1,7 km/h (1 Bft) O-NO 0,00 h 0,025 mm 0,0 UV-I 23 W/m 2,6 C 2,7 C 4,0 km/h (1 Bft) 96,84 %
06.12.2015 16:00 2,5 C 99 % 1031,2 hPa 0,0 l/m 3,3 km/h (1 Bft) O-NO 0,00 h 0,000 mm 0,0 UV-I 4 W/m 2,4 C 2,5 C 6,0 km/h (2 Bft) 83,22 %
06.12.2015 17:00 2,2 C 99 % 1031,3 hPa 0,0 l/m 2,3 km/h (1 Bft) N-NO 0,00 h 0,000 mm 0,0 UV-I 0 W/m 2,0 C 2,2 C 5,2 km/h (1 Bft) 98,06 %
06.12.2015 18:00 2,2 C 99 % 1031,8 hPa 0,0 l/m 1,7 km/h (1 Bft) N-NO 0,00 h 0,000 mm 0,0 UV-I 0 W/m 2,0 C 2,2 C 4,8 km/h (1 Bft) 97,03 %
06.12.2015 19:00 2,1 C 99 % 1032,3 hPa 0,0 l/m 1,4 km/h (1 Bft) S-SO 0,00 h 0,000 mm 0,0 UV-I 0 W/m 2,0 C 2,1 C 4,3 km/h (1 Bft) 98,86 %
06.12.2015 20:00 1,6 C 99 % 1032,7 hPa 0,0 l/m 1,8 km/h (1 Bft) W 0,00 h 0,000 mm 0,0 UV-I 0 W/m 1,4 C 1,6 C 4,4 km/h (1 Bft) 96,87 %
06.12.2015 21:00 0,8 C 99 % 1033,3 hPa 0,0 l/m 0,5 km/h (0 Bft) S 0,00 h 0,000 mm 0,0 UV-I 0 W/m 0,7 C 0,8 C 1,6 km/h (1 Bft) 98,79 %
06.12.2015 22:00 0,5 C 99 % 1033,8 hPa 0,0 l/m 0,1 km/h (0 Bft) N 0,00 h 0,000 mm 0,0 UV-I 0 W/m 0,4 C 0,5 C 1,3 km/h (1 Bft) 97,14 %
06.12.2015 23:00 0,1 C 99 % 1034,3 hPa 0,0 l/m 0,6 km/h (0 Bft) S 0,00 h 0,000 mm 0,0 UV-I 0 W/m -0,1 C 0,1 C 2,4 km/h (1 Bft) 99,00 %
Min-Datum _ 04.12.15 30.11.15 30.11.15 - 03.12.15 - - - - - 04.12.15 04.12.15 03.12.15 06.12.15
_ Min-Zeit 07:35 23:05 23:15 - 09:40 - - - - - 07:35 06:25 10:25 09:15
Minimum _ -1,1 C 60 % 1017,0 hPa - 0,0 km/h (0 Bft) - - - - - -1,4 C -3,8 C 0,0 km/h (0 Bft) 44,44 %
Max-Datum _ 30.11.15 06.12.15 04.12.15 01.12.15 30.11.15 - 03.12.15 03.12.15 03.12.15 03.12.15 01.12.15 02.12.15 30.11.15 30.11.15
_ Max-Zeit 23:55 03:00 21:50 01:00 23:55 - 10:05 13:00 12:10 12:05 19:10 15:00 05:25 00:00
Maximum _ 11,4 C 99 % 1036,4 hPa 0,8 l/m 37,3 km/h
SW (5 Bft)
- 0,08 h 0,153 mm 0,8 UV-I 441 W/m 7,8 C 10,2 C 70,8 km/h
W-SW (8 Bft)
100,00 %
Durchschnitt _ 5,8 C 89 % 1028,2 hPa #7,2 l/m 9,4 km/h (2 Bft) W-SW #11:50 h #5,284 mm 0,5 UV-I 81 W/m 4,0 C 3,2 C 16,3 km/h (3 Bft) 97,74 %